Вернуться в каталог

SAUDICOMSAT 5

АктивенСвязьSSO
NORAD 31124·PAYLOAD·🇸🇦 Saudi Arabia

Запущен Apr 17, 2007 с Baikonur Cosmodrome

Loading…

Ближайшие Пролёты (ближайшие 24 часа)

TLE

СвежийSource: Space-Track

Эпоха: Sep 14, 2026, 08:43 UTC

1 31124U 07012H   26257.36361351  .00000392  00000-0  76146-4 0  9993
2 31124  98.3603 234.1042 0046680 203.6495 156.2563 14.68255219 36685

Отслеживайте SAUDICOMSAT 5 в реальном времени с AllMySat

Download on the App Store